SCP
0 0 0 0 0 0 0 -0 0 0 0 0 0 0 0 0 0 0 0 0 0 0 0 0 0 0 0 0 0 0 0 0 0 0 0 0 0 0 0 0 0 0 0 0 0 0 0
0 0 0 0 0 0 0 0 0 0 0 0 0 0 0 0 0 0 0 0 0 0 0 0 0 0 0 0 0 0 0 0 0 0 0 0 0 0 0 0 0 0 0 0 0 0 0
0 0 0 0 0 0 0 0 0 0 0 0 0 0 0 0 0 0 0 0 0 0 0 0 0 0 0 0 0 0 0 0 0 0 0 0 0 0 0 0 0 0 0 0 0 0 0
0 0 0 0 0 0 0 0 0 0 0 0 0 0 0 0 0 0 0 0 0 0 0 0 0 0 0 0 0 0 0 0 0 0 0 0 0 0 0 0 0 0 0 0 0 0 0
0 0 0 0 0 0 0 0 0 0 0 0 0 0 0 0 0 0 0 0 0 0 0 0 0 0 0 0 0 0 0 0 0 0 0 0 0 0 0 0 0 0 0 0 0 0 0
0 0 0 0 0 0 0 0 0 0 0 0 0 0 0 0 0 0 0 0 0 0 0 0 0 0 0 0 0 0 0 0 0 0 0 0 0 0 0 0 0 0 0 0 0 0 0
0 0 0 0 0 0 0 0 0 0 0 0 0 0 0 0 0 0 0 0 0 0 0 0 0 0 0 0 0 0 0 0 0 0 0 0 0 0 0 0 0 0 0 0 0 0 0
0 0 0 0 0 0 0 -0 0 0 0 0 0 0 0 0 0 0 0 0 0 0 0 0 0 0 0 0 0 0 0 0 0 0 0 0 0 0 0 0 0 0 0 0 0 0 0
0 0 0 0 0 0 0 -0 0 0 0 0 0 0 0 0 0 0 0 0 0 0 0 0 0 0 0 0 0 0 0 0 0 0 0 0 0 0 0 0 0 0 0 0 0 0 0
0 0 0 0 0 0 0 0 0 0 0 0 0 0 0 0 0 0 0 0 0 0 0 0 0 0 0 0 0 0 0 0 0 0 0 0 0 0 0 0 0 0 0 0 0 0 0
0 0 0 0 0 0 0 0 0 0 0 0 0 0 0 0 0 0 0 0 0 0 0 0 0 0 0 0 0 0 0 0 0 0 0 0 0 0 0 0 0 0 0 0 0 0 0
0 0 0 0 0 0 0 0 -0 0 0 0 0 0 0 -0 0 0 0 0 0 0 0 0 0 0 0 0 0 0 0 0 0 0 0 0 0 0 0 0 0 0 0 0 0 0 0
0 0 0 0 0 0 -0 -0 0 0 -0 0 0 0 0 0 0 0 0 0 0 0 0 0 0 0 0 0 0 0 0 0 0 0 0 0 0 0 0 0 0 0 0 0 0 0 0
0 0 0 0 0 0 0 0 0 -0 -0 -0 0 0 -0 0 0 0 0 0 0 0 0 0 0 0 0 0 0 0 0 0 0 0 0 0 0 0 0 0 0 0 0 0 0 0 0
0 0 0 0 0 -0 0 0 0 -0 -0 -0 0 -0 -0 0 0 0 0 0 0 0 0 0 0 0 0 0 0 0 0 0 0 0 0 0 0 0 0 0 0 0 0 0 0 0 0
0 0 0 0 0 -0 0 -0 0 0 -0 0 0 -0 -0 0 0 0 0 0 0 0 0 0 0 0 0 0 0 0 0 0 0 0 0 0 0 0 0 0 0 0 0 0 0 0 0
0 0 0 0 0 -0 0 -0 -0 -0 -0 0 0 0 -0 0 0 0 0 0 0 0 0 0 0 0 0 0 0 0 0 0 0 0 0 0 0 0 0 0 0 0 0 0 0 0 0
0 0 0 0 0 0 -0 -0 -0 -0 -0 0 0 0 -0 0 0 0 0 0 0 0 0 0 0 0 0 0 0 0 0 0 0 0 0 0 0 0 0 0 0 0 0 0 0 0 0
0 0 0 -0 0 0 -0 -0 -0 -0 -0 0 0 0 0 0 0 0 0 0 0 0 0 0 0 0 0 0 0 0 0 0 0 0 0 0 0 0 0 0 0 0 0 0 0 -0 -0
0 0 0 -0 0 0 -0 -0 -0 -0 -0 0 0 0 0 0 0 0 0 0 0 0 0 0 0 0 0 -0 -0 0 0 0 0 0 0 0 0 0 0 0 0 0 0 0 0 0 0
0 0 0 0 0 0 -0 -0 -0 -0 -0 0 0 0 0 0 0 0 0 0 0 0 0 0 0 0 0 -0 -0 -0 -0 -0 0 0 0 0 0 0 0 0 0 0 0 -0 -0 -0 0
0 0 0 -0 0 0 -0 -0 -0 -0 0 0 0 0 0 0 0 0 0 0 0 0 0 0 0 0 -0 0 -0 0 -0 0 0 0 0 0 0 0 0 -0 -0 -0 -0 -0 -0 -0 -0
0 0 0 0 0 -0 -0 -0 -0 0 0 0 0 0 0 0 0 0 0 0 0 0 0 0 0 0 0 -0 -0 -0 -0 -0 -0 0 0 0 0 0 0 0 0 -0 -0 -0 -0 -0 -0
0 0 0 0 -0 -0 -0 -0 0 0 0 0 0 0 0 0 -0 0 0 0 0 0 0 0 0 0 0 0 -0 -0 -0 -0 0 -0 0 0 0 0 0 0 0 0 -0 -0 -0 0 0
0 0 0 0 -0 -0 -0 0 -0 0 -0 0 0 0 0 0 -0 0 0 0 0 0 -0 -0 -0 0 0 0 -0 -0 -0 -0 -0 -0 -0 0 0 0 0 0 0 0 0 -0 0 0 0
0 0 0 0 -0 -0 0 0 0 0 0 0 0 0 0 0 -0 0 0 0 0 0 0 0 0 0 0 0 0 0 0 0 0 -0 0 -0 0 0 0 0 0 0 0 0 0 0 0
0 0 0 0 0 0 0 0 0 0 -0 0 0 0 0 0 0 0 0 0 0 0 0 0 0 0 0 0 0 0 0 0 0 0 -0 0 0 0 0 0 0 0 0 0 0 0 0
0 0 0 0 0 0 0 0 0 0 0 0 0 0 0 0 0 0 0 0 0 0 0 0 0 -0 0 0 0 0 0 0 0 0 0 0 0 -0 -0 -0 0 -0 0 -0 0 0 0
0 0 0 0 -0 0 0 0 0 0 0 0 0 0 0 0 0 0 0 0 0 0 0 0 0 -0 -0 0 0 0 0 0 0 0 0 0 0 0 -0 0 0 -0 0 0 0 0 0
Wind_Speed_500mb
50 51 50 52 51 52 51 55 48 41 38 44 42 50 44 37 34 38 25 22 19 14 14 14 14 21 23 23 20 10 13 12 19 44 38 20 15 9 8 6 2 9 5 13 18 25 33
49 52 56 53 52 52 54 47 49 48 42 38 45 42 50 43 34 36 27 23 21 15 12 14 15 20 27 12 26 31 21 16 16 31 35 29 10 10 10 10 6 4 14 15 17 23 38
51 53 53 52 57 57 55 50 49 45 42 40 40 43 51 44 35 33 27 23 19 13 13 16 14 19 28 40 19 25 31 25 28 22 22 16 20 10 3 6 6 10 8 12 14 17 13
53 56 58 60 54 58 61 56 56 46 47 47 32 44 45 45 44 29 28 22 17 16 17 14 17 17 18 14 29 29 37 35 26 22 14 5 7 7 12 13 10 5 4 4 8 16 16
54 57 60 61 60 59 62 65 60 57 50 47 48 30 44 44 47 38 28 21 23 18 21 19 18 17 18 15 23 33 30 17 32 31 22 15 10 9 7 5 7 10 9 8 11 4 9
52 57 59 62 63 63 64 64 65 58 55 51 50 41 42 46 48 44 26 25 22 21 22 19 24 11 19 6 8 18 36 23 17 23 15 15 10 6 6 8 13 10 11 9 11 4 5
50 55 59 60 68 66 68 66 63 58 57 52 55 49 41 48 46 54 40 34 14 9 33 23 16 10 2 11 11 9 13 34 19 14 10 6 7 20 29 19 14 2 7 17 10 14 13
52 55 58 60 61 68 73 65 61 59 56 52 48 50 42 47 49 65 48 49 34 7 9 57 43 31 7 13 8 11 17 22 14 10 7 4 26 17 9 10 12 16 23 26 17 18 18
56 63 67 66 66 68 69 64 63 69 62 51 50 48 49 46 50 73 60 49 32 15 2 12 50 43 30 22 7 25 31 17 7 12 16 19 6 8 21 10 12 11 21 12 23 21 28
64 65 68 66 68 66 66 63 62 69 60 49 47 49 47 53 50 78 69 57 34 14 8 9 10 12 26 27 11 43 43 19 6 21 17 18 18 14 8 11 12 28 14 23 22 9 9
63 65 70 67 66 66 64 61 64 62 60 54 51 50 50 53 32 84 68 64 42 15 5 6 9 10 19 37 9 13 44 20 15 14 11 10 7 10 25 25 13 11 11 16 16 13 11
67 66 68 64 65 66 66 64 66 64 56 56 54 53 43 67 39 80 54 62 43 11 12 10 10 11 19 19 3 13 17 15 5 9 14 12 7 9 10 7 25 1 8 11 8 11 20
70 69 67 66 61 64 62 63 71 70 78 76 50 45 38 56 22 72 80 68 10 8 2 12 11 13 17 13 10 11 22 19 12 8 14 10 32 8 9 8 9 15 9 5 10 12 14
72 70 67 64 60 62 59 64 62 82 84 60 41 28 38 55 45 82 92 10 9 12 10 6 12 14 12 10 11 11 20 16 26 7 3 11 11 27 22 27 13 19 20 8 11 6 7
72 67 65 63 58 61 63 60 60 74 85 48 21 26 20 63 63 94 68 9 16 12 13 16 20 12 14 10 4 12 17 16 17 28 13 5 10 3 6 15 22 9 16 27 11 11 7
70 70 63 64 57 56 59 60 61 73 80 34 6 20 19 36 104 98 18 11 9 9 13 7 11 11 14 14 13 13 14 8 24 29 26 4 12 9 6 13 21 14 1 7 11 10 10
68 65 62 64 57 58 58 59 62 69 73 39 2 18 16 23 80 38 10 8 7 14 18 10 8 8 7 10 12 9 8 8 12 7 30 11 11 1 6 19 24 16 12 9 4 7 9
67 64 63 62 57 58 59 57 61 64 65 42 11 1 20 51 14 6 8 11 10 9 5 5 6 7 11 15 13 11 15 12 18 22 17 18 7 12 30 9 24 26 22 25 11 11 8
67 64 63 60 55 56 57 60 60 61 56 60 7 6 65 85 6 8 7 6 6 7 8 9 9 9 9 12 7 15 9 15 30 21 23 19 10 6 7 3 7 17 25 29 26 7 16
69 63 60 58 57 54 56 58 62 65 72 41 13 5 30 39 12 17 16 7 7 5 8 8 7 9 9 11 10 5 8 7 38 21 24 31 10 16 17 8 4 12 23 32 31 15 29
66 63 59 58 56 56 57 55 64 65 50 20 9 6 11 10 9 21 9 12 9 3 2 18 8 16 11 8 13 15 16 11 16 26 18 15 15 24 41 43 22 13 25 34 42 40 23
60 59 56 58 54 56 54 56 59 58 44 7 9 7 11 21 27 21 11 13 22 15 9 8 12 14 17 13 13 3 6 12 11 18 20 10 11 9 19 30 39 29 35 32 42 47 48
59 57 56 56 54 55 53 47 53 58 47 15 20 14 24 31 19 17 17 9 13 14 14 19 22 16 18 26 35 44 33 25 11 10 16 6 5 5 12 17 15 21 44 42 30 39 38
57 51 55 56 52 55 48 44 49 50 45 32 18 19 2 12 19 18 22 19 9 11 11 1 20 14 5 8 22 18 32 34 25 25 25 13 6 4 10 8 7 4 10 44 47 22 42
56 53 48 50 51 53 47 47 44 47 45 35 18 9 2 7 18 21 14 12 21 10 4 11 33 35 23 11 5 6 5 7 12 20 28 20 7 5 6 6 10 7 5 9 23 24 30
57 53 48 47 45 49 43 42 43 50 48 38 5 6 14 7 18 21 17 13 6 6 2 8 12 11 17 5 4 5 5 2 9 7 4 10 7 2 7 6 8 6 3 17 13 9 35
53 52 48 43 45 46 44 44 40 47 45 41 8 8 7 8 23 37 15 12 10 6 3 4 4 4 19 5 7 6 5 5 5 5 6 4 5 8 9 7 10 4 5 19 3 9 10
49 45 47 41 42 43 46 46 39 42 38 39 9 15 7 6 20 17 30 23 17 17 7 9 1 7 5 7 7 5 7 8 3 7 8 11 8 6 1 4 6 5 9 7 6 10 8
51 46 42 43 41 41 41 42 41 38 36 38 20 10 12 6 7 21 22 21 25 17 20 15 4 3 9 5 5 4 6 4 6 6 1 5 9 5 13 9 5 5 10 16 18 14 5
Wind_Direction_500mb
357 352 350 346 342 341 327 307 298 331 290 271 269 264 265 269 285 288 263 257 247 233 259 250 242 223 211 218 235 204 211 215 213 215 213 207 203 182 205 222 279 207 228 266 272 278 274
351 351 348 345 342 341 339 334 315 294 322 282 266 260 261 257 271 283 267 250 240 222 229 252 224 226 217 233 246 232 187 152 155 186 202 210 215 227 260 244 195 295 297 275 279 275 266
351 349 344 343 340 336 334 329 327 299 296 323 274 261 252 254 251 276 261 245 235 227 238 241 222 233 234 241 235 225 191 176 155 166 173 195 218 223 170 257 299 278 298 292 236 237 247
348 347 346 342 336 334 333 329 325 314 295 291 323 258 250 254 246 255 262 234 211 214 231 239 235 242 249 257 243 229 212 210 193 194 198 182 185 244 225 279 328 299 210 298 309 207 226
347 344 343 341 338 334 330 327 323 319 309 293 295 277 246 246 241 243 243 217 215 214 230 226 242 237 261 247 232 209 211 211 214 227 223 222 239 232 189 150 317 202 243 217 324 242 244
341 338 339 337 336 331 326 324 319 318 314 297 299 287 245 235 237 228 212 199 213 222 214 223 234 265 247 233 186 193 214 210 166 179 183 216 218 206 160 165 224 204 234 219 231 291 343
338 342 338 335 332 330 326 325 317 316 315 306 292 290 258 230 234 216 189 178 173 205 205 200 211 224 52 169 167 185 198 184 168 161 175 181 205 216 222 223 253 8 273 270 283 284 307
341 337 331 327 326 325 324 321 317 311 309 305 304 300 269 229 231 205 198 187 197 153 222 230 240 235 184 164 151 184 175 162 163 177 129 209 246 238 238 205 228 236 257 266 278 265 267
329 330 328 327 327 325 321 316 312 317 319 303 293 302 260 235 249 198 195 195 191 200 276 253 229 234 220 225 234 193 182 173 144 161 196 216 183 233 201 200 214 218 237 252 257 288 285
332 331 326 327 325 324 320 314 310 314 313 303 297 288 276 231 195 187 185 184 173 166 53 247 203 241 200 204 265 214 194 164 159 203 204 246 235 235 204 236 192 255 195 236 250 247 246
330 332 325 326 322 322 322 321 314 319 312 317 292 283 280 236 267 174 182 183 186 166 15 151 160 155 168 162 140 174 196 180 161 183 164 230 175 220 233 226 187 245 188 211 232 235 269
328 327 326 325 324 324 325 323 329 323 312 306 296 277 273 241 219 183 182 163 145 62 251 169 135 170 156 203 172 124 169 193 175 205 233 222 196 181 214 246 212 17 231 253 251 251 251
331 331 328 326 324 326 326 327 322 320 316 319 293 272 245 233 195 172 155 143 91 160 48 170 175 172 181 165 208 150 186 191 193 195 221 224 232 177 200 197 186 190 217 238 220 210 242
329 329 330 330 327 327 332 328 328 317 328 312 289 245 239 239 272 169 155 119 128 185 180 117 149 149 184 153 204 189 178 208 216 189 330 217 299 183 188 207 184 191 188 199 223 230 274
328 331 332 331 329 332 332 329 329 326 333 331 242 208 208 237 215 162 161 187 186 181 152 136 136 168 195 206 204 176 224 232 209 182 208 217 264 307 205 185 193 174 205 223 282 275 293
332 331 334 332 330 333 334 331 332 334 343 352 177 170 212 246 164 161 163 192 158 141 120 151 156 171 176 187 181 181 194 223 219 183 198 231 273 215 215 182 246 197 276 188 189 199 233
327 333 336 333 334 335 336 333 333 338 342 340 80 157 167 201 161 161 170 178 162 153 128 149 166 153 199 169 185 203 232 266 205 196 176 155 212 167 182 205 186 190 223 235 248 193 208
334 337 337 335 337 338 337 334 335 340 340 357 315 126 158 176 165 187 155 159 140 127 126 120 137 129 173 176 183 215 223 231 179 141 180 202 223 225 225 226 211 202 208 203 206 232 238
337 338 338 338 339 337 339 334 335 338 336 327 238 148 160 155 160 153 138 105 103 119 180 149 165 169 173 171 210 200 205 246 173 170 174 163 220 265 281 193 187 217 222 217 226 280 220
338 339 338 340 338 340 342 335 337 343 334 351 151 133 144 199 281 160 136 143 124 162 139 159 167 120 159 211 219 265 240 264 186 184 185 172 211 214 236 234 184 201 207 214 205 230 236
342 338 340 340 344 347 344 340 345 348 342 168 174 104 120 166 195 167 128 141 176 110 193 179 185 210 174 221 221 226 228 264 166 198 188 198 239 224 239 244 222 206 209 210 213 223 220
341 338 341 342 342 346 346 346 352 356 6 265 24 102 161 152 148 158 195 163 174 193 200 198 227 201 226 233 219 182 223 192 192 199 196 211 266 253 258 237 226 225 218 217 218 226 235
344 342 340 342 344 347 349 349 357 2 10 6 355 320 162 169 153 162 190 180 198 148 212 255 209 228 254 246 237 253 250 253 258 241 211 252 264 280 280 323 234 237 233 224 223 216 219
342 343 342 341 344 346 349 348 355 3 7 355 327 319 143 168 186 182 153 205 180 202 207 237 223 210 210 200 284 266 244 255 255 248 189 198 199 239 282 278 273 299 275 212 211 225 218
341 342 343 338 342 345 351 347 353 358 358 352 330 291 270 137 184 177 157 180 221 243 214 259 266 247 259 299 269 254 220 278 246 229 209 209 142 282 273 294 279 355 6 123 174 237 211
339 339 341 338 341 342 348 343 349 355 357 353 98 266 286 138 209 157 176 158 145 165 232 230 265 258 242 232 233 248 228 152 306 332 355 200 246 309 312 319 348 308 305 88 80 257 201
337 336 335 337 337 341 344 346 349 354 355 354 14 247 323 90 147 183 182 199 180 147 231 290 215 228 207 219 228 205 246 150 265 244 188 190 187 217 268 285 291 308 168 121 53 282 360
337 332 329 336 336 338 342 344 344 350 351 349 347 16 60 59 163 169 168 170 159 184 174 156 296 206 194 220 199 165 212 231 255 225 193 184 172 213 280 259 330 81 92 189 241 303 326
339 336 331 334 336 335 339 338 336 340 349 348 336 48 125 154 173 204 212 210 206 240 205 184 214 154 235 235 205 178 203 171 208 272 140 241 193 199 183 221 250 226 257 293 304 295 227
Wind_Speed_850mb
50 51 50 52 51 52 51 55 48 41 38 44 42 50 44 37 34 38 25 22 19 14 14 14 14 21 23 23 20 10 13 12 19 44 38 20 15 9 8 6 2 9 5 13 18 25 33
49 52 56 53 52 52 54 47 49 48 42 38 45 42 50 43 34 36 27 23 21 15 12 14 15 20 27 12 26 31 21 16 16 31 35 29 10 10 10 10 6 4 14 15 17 23 38
51 53 53 52 57 57 55 50 49 45 42 40 40 43 51 44 35 33 27 23 19 13 13 16 14 19 28 40 19 25 31 25 28 22 22 16 20 10 3 6 6 10 8 12 14 17 13
53 56 58 60 54 58 61 56 56 46 47 47 32 44 45 45 44 29 28 22 17 16 17 14 17 17 18 14 29 29 37 35 26 22 14 5 7 7 12 13 10 5 4 4 8 16 16
54 57 60 61 60 59 62 65 60 57 50 47 48 30 44 44 47 38 28 21 23 18 21 19 18 17 18 15 23 33 30 17 32 31 22 15 10 9 7 5 7 10 9 8 11 4 9
52 57 59 62 63 63 64 64 65 58 55 51 50 41 42 46 48 44 26 25 22 21 22 19 24 11 19 6 8 18 36 23 17 23 15 15 10 6 6 8 13 10 11 9 11 4 5
50 55 59 60 68 66 68 66 63 58 57 52 55 49 41 48 46 54 40 34 14 9 33 23 16 10 2 11 11 9 13 34 19 14 10 6 7 20 29 19 14 2 7 17 10 14 13
52 55 58 60 61 68 73 65 61 59 56 52 48 50 42 47 49 65 48 49 34 7 9 57 43 31 7 13 8 11 17 22 14 10 7 4 26 17 9 10 12 16 23 26 17 18 18
56 63 67 66 66 68 69 64 63 69 62 51 50 48 49 46 50 73 60 49 32 15 2 12 50 43 30 22 7 25 31 17 7 12 16 19 6 8 21 10 12 11 21 12 23 21 28
64 65 68 66 68 66 66 63 62 69 60 49 47 49 47 53 50 78 69 57 34 14 8 9 10 12 26 27 11 43 43 19 6 21 17 18 18 14 8 11 12 28 14 23 22 9 9
63 65 70 67 66 66 64 61 64 62 60 54 51 50 50 53 32 84 68 64 42 15 5 6 9 10 19 37 9 13 44 20 15 14 11 10 7 10 25 25 13 11 11 16 16 13 11
67 66 68 64 65 66 66 64 66 64 56 56 54 53 43 67 39 80 54 62 43 11 12 10 10 11 19 19 3 13 17 15 5 9 14 12 7 9 10 7 25 1 8 11 8 11 20
70 69 67 66 61 64 62 63 71 70 78 76 50 45 38 56 22 72 80 68 10 8 2 12 11 13 17 13 10 11 22 19 12 8 14 10 32 8 9 8 9 15 9 5 10 12 14
72 70 67 64 60 62 59 64 62 82 84 60 41 28 38 55 45 82 92 10 9 12 10 6 12 14 12 10 11 11 20 16 26 7 3 11 11 27 22 27 13 19 20 8 11 6 7
72 67 65 63 58 61 63 60 60 74 85 48 21 26 20 63 63 94 68 9 16 12 13 16 20 12 14 10 4 12 17 16 17 28 13 5 10 3 6 15 22 9 16 27 11 11 7
70 70 63 64 57 56 59 60 61 73 80 34 6 20 19 36 104 98 18 11 9 9 13 7 11 11 14 14 13 13 14 8 24 29 26 4 12 9 6 13 21 14 1 7 11 10 10
68 65 62 64 57 58 58 59 62 69 73 39 2 18 16 23 80 38 10 8 7 14 18 10 8 8 7 10 12 9 8 8 12 7 30 11 11 1 6 19 24 16 12 9 4 7 9
67 64 63 62 57 58 59 57 61 64 65 42 11 1 20 51 14 6 8 11 10 9 5 5 6 7 11 15 13 11 15 12 18 22 17 18 7 12 30 9 24 26 22 25 11 11 8
67 64 63 60 55 56 57 60 60 61 56 60 7 6 65 85 6 8 7 6 6 7 8 9 9 9 9 12 7 15 9 15 30 21 23 19 10 6 7 3 7 17 25 29 26 7 16
69 63 60 58 57 54 56 58 62 65 72 41 13 5 30 39 12 17 16 7 7 5 8 8 7 9 9 11 10 5 8 7 38 21 24 31 10 16 17 8 4 12 23 32 31 15 29
66 63 59 58 56 56 57 55 64 65 50 20 9 6 11 10 9 21 9 12 9 3 2 18 8 16 11 8 13 15 16 11 16 26 18 15 15 24 41 43 22 13 25 34 42 40 23
60 59 56 58 54 56 54 56 59 58 44 7 9 7 11 21 27 21 11 13 22 15 9 8 12 14 17 13 13 3 6 12 11 18 20 10 11 9 19 30 39 29 35 32 42 47 48
59 57 56 56 54 55 53 47 53 58 47 15 20 14 24 31 19 17 17 9 13 14 14 19 22 16 18 26 35 44 33 25 11 10 16 6 5 5 12 17 15 21 44 42 30 39 38
57 51 55 56 52 55 48 44 49 50 45 32 18 19 2 12 19 18 22 19 9 11 11 1 20 14 5 8 22 18 32 34 25 25 25 13 6 4 10 8 7 4 10 44 47 22 42
56 53 48 50 51 53 47 47 44 47 45 35 18 9 2 7 18 21 14 12 21 10 4 11 33 35 23 11 5 6 5 7 12 20 28 20 7 5 6 6 10 7 5 9 23 24 30
57 53 48 47 45 49 43 42 43 50 48 38 5 6 14 7 18 21 17 13 6 6 2 8 12 11 17 5 4 5 5 2 9 7 4 10 7 2 7 6 8 6 3 17 13 9 35
53 52 48 43 45 46 44 44 40 47 45 41 8 8 7 8 23 37 15 12 10 6 3 4 4 4 19 5 7 6 5 5 5 5 6 4 5 8 9 7 10 4 5 19 3 9 10
49 45 47 41 42 43 46 46 39 42 38 39 9 15 7 6 20 17 30 23 17 17 7 9 1 7 5 7 7 5 7 8 3 7 8 11 8 6 1 4 6 5 9 7 6 10 8
51 46 42 43 41 41 41 42 41 38 36 38 20 10 12 6 7 21 22 21 25 17 20 15 4 3 9 5 5 4 6 4 6 6 1 5 9 5 13 9 5 5 10 16 18 14 5
Wind_Direction_850mb
357 352 350 346 342 341 327 307 298 331 290 271 269 264 265 269 285 288 263 257 247 233 259 250 242 223 211 218 235 204 211 215 213 215 213 207 203 182 205 222 279 207 228 266 272 278 274
351 351 348 345 342 341 339 334 315 294 322 282 266 260 261 257 271 283 267 250 240 222 229 252 224 226 217 233 246 232 187 152 155 186 202 210 215 227 260 244 195 295 297 275 279 275 266
351 349 344 343 340 336 334 329 327 299 296 323 274 261 252 254 251 276 261 245 235 227 238 241 222 233 234 241 235 225 191 176 155 166 173 195 218 223 170 257 299 278 298 292 236 237 247
348 347 346 342 336 334 333 329 325 314 295 291 323 258 250 254 246 255 262 234 211 214 231 239 235 242 249 257 243 229 212 210 193 194 198 182 185 244 225 279 328 299 210 298 309 207 226
347 344 343 341 338 334 330 327 323 319 309 293 295 277 246 246 241 243 243 217 215 214 230 226 242 237 261 247 232 209 211 211 214 227 223 222 239 232 189 150 317 202 243 217 324 242 244
341 338 339 337 336 331 326 324 319 318 314 297 299 287 245 235 237 228 212 199 213 222 214 223 234 265 247 233 186 193 214 210 166 179 183 216 218 206 160 165 224 204 234 219 231 291 343
338 342 338 335 332 330 326 325 317 316 315 306 292 290 258 230 234 216 189 178 173 205 205 200 211 224 52 169 167 185 198 184 168 161 175 181 205 216 222 223 253 8 273 270 283 284 307
341 337 331 327 326 325 324 321 317 311 309 305 304 300 269 229 231 205 198 187 197 153 222 230 240 235 184 164 151 184 175 162 163 177 129 209 246 238 238 205 228 236 257 266 278 265 267
329 330 328 327 327 325 321 316 312 317 319 303 293 302 260 235 249 198 195 195 191 200 276 253 229 234 220 225 234 193 182 173 144 161 196 216 183 233 201 200 214 218 237 252 257 288 285
332 331 326 327 325 324 320 314 310 314 313 303 297 288 276 231 195 187 185 184 173 166 53 247 203 241 200 204 265 214 194 164 159 203 204 246 235 235 204 236 192 255 195 236 250 247 246
330 332 325 326 322 322 322 321 314 319 312 317 292 283 280 236 267 174 182 183 186 166 15 151 160 155 168 162 140 174 196 180 161 183 164 230 175 220 233 226 187 245 188 211 232 235 269
328 327 326 325 324 324 325 323 329 323 312 306 296 277 273 241 219 183 182 163 145 62 251 169 135 170 156 203 172 124 169 193 175 205 233 222 196 181 214 246 212 17 231 253 251 251 251
331 331 328 326 324 326 326 327 322 320 316 319 293 272 245 233 195 172 155 143 91 160 48 170 175 172 181 165 208 150 186 191 193 195 221 224 232 177 200 197 186 190 217 238 220 210 242
329 329 330 330 327 327 332 328 328 317 328 312 289 245 239 239 272 169 155 119 128 185 180 117 149 149 184 153 204 189 178 208 216 189 330 217 299 183 188 207 184 191 188 199 223 230 274
328 331 332 331 329 332 332 329 329 326 333 331 242 208 208 237 215 162 161 187 186 181 152 136 136 168 195 206 204 176 224 232 209 182 208 217 264 307 205 185 193 174 205 223 282 275 293
332 331 334 332 330 333 334 331 332 334 343 352 177 170 212 246 164 161 163 192 158 141 120 151 156 171 176 187 181 181 194 223 219 183 198 231 273 215 215 182 246 197 276 188 189 199 233
327 333 336 333 334 335 336 333 333 338 342 340 80 157 167 201 161 161 170 178 162 153 128 149 166 153 199 169 185 203 232 266 205 196 176 155 212 167 182 205 186 190 223 235 248 193 208
334 337 337 335 337 338 337 334 335 340 340 357 315 126 158 176 165 187 155 159 140 127 126 120 137 129 173 176 183 215 223 231 179 141 180 202 223 225 225 226 211 202 208 203 206 232 238
337 338 338 338 339 337 339 334 335 338 336 327 238 148 160 155 160 153 138 105 103 119 180 149 165 169 173 171 210 200 205 246 173 170 174 163 220 265 281 193 187 217 222 217 226 280 220
338 339 338 340 338 340 342 335 337 343 334 351 151 133 144 199 281 160 136 143 124 162 139 159 167 120 159 211 219 265 240 264 186 184 185 172 211 214 236 234 184 201 207 214 205 230 236
342 338 340 340 344 347 344 340 345 348 342 168 174 104 120 166 195 167 128 141 176 110 193 179 185 210 174 221 221 226 228 264 166 198 188 198 239 224 239 244 222 206 209 210 213 223 220
341 338 341 342 342 346 346 346 352 356 6 265 24 102 161 152 148 158 195 163 174 193 200 198 227 201 226 233 219 182 223 192 192 199 196 211 266 253 258 237 226 225 218 217 218 226 235
344 342 340 342 344 347 349 349 357 2 10 6 355 320 162 169 153 162 190 180 198 148 212 255 209 228 254 246 237 253 250 253 258 241 211 252 264 280 280 323 234 237 233 224 223 216 219
342 343 342 341 344 346 349 348 355 3 7 355 327 319 143 168 186 182 153 205 180 202 207 237 223 210 210 200 284 266 244 255 255 248 189 198 199 239 282 278 273 299 275 212 211 225 218
341 342 343 338 342 345 351 347 353 358 358 352 330 291 270 137 184 177 157 180 221 243 214 259 266 247 259 299 269 254 220 278 246 229 209 209 142 282 273 294 279 355 6 123 174 237 211
339 339 341 338 341 342 348 343 349 355 357 353 98 266 286 138 209 157 176 158 145 165 232 230 265 258 242 232 233 248 228 152 306 332 355 200 246 309 312 319 348 308 305 88 80 257 201
337 336 335 337 337 341 344 346 349 354 355 354 14 247 323 90 147 183 182 199 180 147 231 290 215 228 207 219 228 205 246 150 265 244 188 190 187 217 268 285 291 308 168 121 53 282 360
337 332 329 336 336 338 342 344 344 350 351 349 347 16 60 59 163 169 168 170 159 184 174 156 296 206 194 220 199 165 212 231 255 225 193 184 172 213 280 259 330 81 92 189 241 303 326
339 336 331 334 336 335 339 338 336 340 349 348 336 48 125 154 173 204 212 210 206 240 205 184 214 154 235 235 205 178 203 171 208 272 140 241 193 199 183 221 250 226 257 293 304 295 227